Time,TemperatureF,DewpointF,PressureIn,WindDirection,WindDirectionDegrees,WindSpeedMPH,WindSpeedGustMPH,Humidity,HourlyPrecipIn,Conditions,Clouds,dailyrainin,SolarRadiationWatts/m^2,SoftwareType,DateUTC
2013-08-06 00:00:00,65.0,53.0,-100.00,NE,44,4.0,6.0,64,-99.99,,,0.00,0.000000,,2013-08-06 07:00:00,
2013-08-06 00:43:00,65.0,53.0,-100.00,NE,44,4.0,6.0,64,-99.99,,,0.00,0.000000,,2013-08-06 07:43:00,
2013-08-06 00:53:00,65.0,53.0,-100.00,NE,44,4.0,6.0,64,-99.99,,,0.00,0.000000,,2013-08-06 07:53:00,
2013-08-06 01:00:00,64.0,53.0,-100.00,NNE,27,4.0,5.0,67,-99.99,,,0.00,0.000000,,2013-08-06 08:00:00,
2013-08-06 01:43:00,64.0,53.0,-100.00,NNE,27,4.0,5.0,67,-99.99,,,0.00,0.000000,,2013-08-06 08:43:00,
2013-08-06 01:52:00,64.0,53.0,-100.00,NNE,27,4.0,5.0,67,-99.99,,,0.00,0.000000,,2013-08-06 08:52:00,
2013-08-06 02:00:00,62.0,52.0,-100.00,NNE,25,3.0,6.0,69,-99.99,,,0.00,0.000000,,2013-08-06 09:00:00,
2013-08-06 02:43:00,62.0,52.0,-100.00,NNE,25,3.0,6.0,69,-99.99,,,0.00,0.000000,,2013-08-06 09:43:00,
2013-08-06 02:52:00,62.0,52.0,-100.00,NNE,25,3.0,6.0,69,-99.99,,,0.00,0.000000,,2013-08-06 09:52:00,
2013-08-06 03:00:00,62.0,53.0,-100.00,NNE,24,4.0,7.0,72,-99.99,,,0.00,0.120000,,2013-08-06 10:00:00,
2013-08-06 03:43:00,62.0,53.0,-100.00,NNE,24,4.0,7.0,72,-99.99,,,0.00,0.120000,,2013-08-06 10:43:00,
2013-08-06 03:53:00,62.0,53.0,-100.00,NNE,24,4.0,7.0,72,-99.99,,,0.00,0.120000,,2013-08-06 10:53:00,
2013-08-06 04:00:00,60.0,52.0,-100.00,NNE,22,4.0,6.0,74,-99.99,,,0.00,0.120000,,2013-08-06 11:00:00,
2013-08-06 04:43:00,60.0,52.0,-100.00,NNE,22,4.0,6.0,74,-99.99,,,0.00,0.120000,,2013-08-06 11:43:00,
2013-08-06 04:53:00,60.0,52.0,-100.00,NNE,22,4.0,6.0,74,-99.99,,,0.00,0.120000,,2013-08-06 11:53:00,
2013-08-06 05:00:00,58.0,52.0,-100.00,NNE,32,4.0,7.0,78,-99.99,,,0.00,0.120000,,2013-08-06 12:00:00,
2013-08-06 05:43:00,58.0,52.0,-100.00,NNE,32,4.0,7.0,78,-99.99,,,0.00,0.120000,,2013-08-06 12:43:00,
2013-08-06 05:52:00,58.0,52.0,-100.00,NNE,32,4.0,7.0,78,-99.99,,,0.00,0.120000,,2013-08-06 12:52:00,
2013-08-06 06:00:00,59.0,52.0,-100.00,NNE,22,4.0,7.0,78,-99.99,,,0.00,14.640000,,2013-08-06 13:00:00,
2013-08-06 06:53:00,59.0,52.0,-100.00,NNE,22,4.0,7.0,78,-99.99,,,0.00,14.640000,,2013-08-06 13:53:00,
2013-08-06 07:00:00,58.0,53.0,-100.00,NE,39,3.0,4.0,82,-99.99,,,0.00,42.770000,,2013-08-06 14:00:00,
2013-08-06 07:42:00,58.0,53.0,-100.00,NE,39,3.0,4.0,82,-99.99,,,0.00,42.770000,,2013-08-06 14:42:00,
2013-08-06 07:53:00,58.0,53.0,-100.00,NE,39,3.0,4.0,82,-99.99,,,0.00,42.770000,,2013-08-06 14:53:00,
2013-08-06 08:00:00,66.0,56.0,-100.00,East,90,3.0,6.0,71,-99.99,,,0.00,349.239990,,2013-08-06 15:00:00,
2013-08-06 08:44:00,66.0,56.0,-100.00,East,90,3.0,6.0,71,-99.99,,,0.00,349.239990,,2013-08-06 15:44:00,
2013-08-06 08:52:00,66.0,56.0,-100.00,East,90,3.0,6.0,71,-99.99,,,0.00,349.239990,,2013-08-06 15:52:00,
2013-08-06 09:00:00,70.0,55.0,-100.00,SSE,152,3.0,7.0,59,-99.99,,,0.00,527.169983,,2013-08-06 16:00:00,
2013-08-06 09:42:00,70.0,55.0,-100.00,SSE,152,3.0,7.0,59,-99.99,,,0.00,527.169983,,2013-08-06 16:42:00,
2013-08-06 09:52:00,70.0,55.0,-100.00,SSE,152,3.0,7.0,59,-99.99,,,0.00,527.169983,,2013-08-06 16:52:00,
2013-08-06 10:00:00,74.0,55.0,-100.00,South,173,2.0,4.0,52,-99.99,,,0.00,684.419983,,2013-08-06 17:00:00,
2013-08-06 10:43:00,74.0,55.0,-100.00,South,173,2.0,4.0,52,-99.99,,,0.00,684.419983,,2013-08-06 17:43:00,
2013-08-06 10:52:00,74.0,55.0,-100.00,South,173,2.0,4.0,52,-99.99,,,0.00,684.419983,,2013-08-06 17:52:00,
2013-08-06 11:00:00,77.0,57.0,-100.00,SW,233,3.0,4.0,49,-99.99,,,0.00,809.359985,,2013-08-06 18:00:00,
2013-08-06 11:43:00,77.0,57.0,-100.00,SW,233,3.0,4.0,49,-99.99,,,0.00,809.359985,,2013-08-06 18:43:00,
2013-08-06 11:52:00,77.0,57.0,-100.00,SW,233,3.0,4.0,49,-99.99,,,0.00,809.359985,,2013-08-06 18:52:00,
2013-08-06 12:00:00,82.0,56.0,-100.00,SSW,206,3.0,4.0,41,-99.99,,,0.00,893.030029,,2013-08-06 19:00:00,
2013-08-06 12:42:00,82.0,56.0,-100.00,SSW,206,3.0,4.0,41,-99.99,,,0.00,893.030029,,2013-08-06 19:42:00,
2013-08-06 12:52:00,82.0,56.0,-100.00,SSW,206,3.0,4.0,41,-99.99,,,0.00,893.030029,,2013-08-06 19:52:00,
2013-08-06 13:00:00,86.0,55.0,-100.00,SW,225,3.0,5.0,34,-99.99,,,0.00,932.080017,,2013-08-06 20:00:00,
2013-08-06 13:44:00,86.0,55.0,-100.00,SW,225,3.0,5.0,34,-99.99,,,0.00,932.080017,,2013-08-06 20:44:00,
2013-08-06 13:52:00,86.0,55.0,-100.00,SW,225,3.0,5.0,34,-99.99,,,0.00,932.080017,,2013-08-06 20:52:00,
2013-08-06 14:00:00,90.0,48.0,-100.00,SSE,159,3.0,5.0,23,-99.99,,,0.00,910.700012,,2013-08-06 21:00:00,
2013-08-06 14:43:00,90.0,48.0,-100.00,SSE,159,3.0,5.0,23,-99.99,,,0.00,910.700012,,2013-08-06 21:43:00,
2013-08-06 14:52:00,90.0,48.0,-100.00,SSE,159,3.0,5.0,23,-99.99,,,0.00,910.700012,,2013-08-06 21:52:00,
2013-08-06 15:00:00,92.0,45.0,-100.00,South,188,3.0,5.0,20,-99.99,,,0.00,826.090027,,2013-08-06 22:00:00,
2013-08-06 15:43:00,92.0,45.0,-100.00,South,188,3.0,5.0,20,-99.99,,,0.00,826.090027,,2013-08-06 22:43:00,
2013-08-06 15:53:00,92.0,45.0,-100.00,South,188,3.0,5.0,20,-99.99,,,0.00,826.090027,,2013-08-06 22:53:00,
2013-08-06 16:00:00,92.0,44.0,-100.00,SW,227,3.0,5.0,19,-99.99,,,0.00,706.270020,,2013-08-06 23:00:00,
2013-08-06 16:43:00,92.0,44.0,-100.00,SW,227,3.0,5.0,19,-99.99,,,0.00,706.270020,,2013-08-06 23:43:00,
2013-08-06 16:52:00,92.0,44.0,-100.00,SW,227,3.0,5.0,19,-99.99,,,0.00,706.270020,,2013-08-06 23:52:00,
2013-08-06 17:00:00,91.0,50.0,-100.00,SW,236,3.0,5.0,24,-99.99,,,0.00,527.169983,,2013-08-07 00:00:00,
2013-08-06 17:43:00,91.0,50.0,-100.00,SW,236,3.0,5.0,24,-99.99,,,0.00,527.169983,,2013-08-07 00:43:00,
2013-08-06 17:52:00,91.0,50.0,-100.00,SW,236,3.0,5.0,24,-99.99,,,0.00,527.169983,,2013-08-07 00:52:00,
2013-08-06 18:00:00,93.0,45.0,-100.00,NW,315,2.0,5.0,19,-99.99,,,0.00,337.269989,,2013-08-07 01:00:00,
2013-08-06 18:43:00,93.0,45.0,-100.00,NW,315,2.0,5.0,19,-99.99,,,0.00,337.269989,,2013-08-07 01:43:00,
2013-08-06 18:52:00,93.0,45.0,-100.00,NW,315,2.0,5.0,19,-99.99,,,0.00,337.269989,,2013-08-07 01:52:00,
2013-08-06 19:00:00,83.0,56.0,-100.00,East,83,2.0,4.0,39,-99.99,,,0.00,156.550003,,2013-08-07 02:00:00,
2013-08-06 19:43:00,83.0,56.0,-100.00,East,83,2.0,4.0,39,-99.99,,,0.00,156.550003,,2013-08-07 02:43:00,
2013-08-06 19:53:00,83.0,56.0,-100.00,East,83,2.0,4.0,39,-99.99,,,0.00,156.550003,,2013-08-07 02:53:00,
2013-08-06 20:00:00,79.0,54.0,-100.00,NE,36,2.0,3.0,42,-99.99,,,0.00,12.900000,,2013-08-07 03:00:00,
2013-08-06 20:43:00,79.0,54.0,-100.00,NE,36,2.0,3.0,42,-99.99,,,0.00,12.900000,,2013-08-07 03:43:00,
2013-08-06 20:52:00,79.0,54.0,-100.00,NE,36,2.0,3.0,42,-99.99,,,0.00,12.900000,,2013-08-07 03:52:00,
2013-08-06 21:00:00,75.0,51.0,-100.00,NNE,26,2.0,4.0,43,-99.99,,,0.00,0.000000,,2013-08-07 04:00:00,
2013-08-06 21:43:00,75.0,51.0,-100.00,NNE,26,2.0,4.0,43,-99.99,,,0.00,0.000000,,2013-08-07 04:43:00,
2013-08-06 21:52:00,75.0,51.0,-100.00,NNE,26,2.0,4.0,43,-99.99,,,0.00,0.000000,,2013-08-07 04:52:00,
2013-08-06 22:00:00,73.0,52.0,-100.00,NNE,24,3.0,6.0,48,-99.99,,,0.00,0.000000,,2013-08-07 05:00:00,
2013-08-06 22:43:00,73.0,52.0,-100.00,NNE,24,3.0,6.0,48,-99.99,,,0.00,0.000000,,2013-08-07 05:43:00,
2013-08-06 22:52:00,73.0,52.0,-100.00,NNE,24,3.0,6.0,48,-99.99,,,0.00,0.000000,,2013-08-07 05:52:00,
2013-08-06 23:00:00,70.0,52.0,-100.00,NNE,20,3.0,5.0,52,-99.99,,,0.00,0.000000,,2013-08-07 06:00:00,
2013-08-06 23:52:00,70.0,52.0,-100.00,NNE,20,3.0,5.0,52,-99.99,,,0.00,0.000000,,2013-08-07 06:52:00,